{"data":{"norad_id":66919,"epoch":"2026-09-20T22:06:54.003168Z","epoch_age_seconds":75523,"freshness":"FRESH","line1":"1 66919U 25285E   26263.92145837 -.00000100  00000+0  51325-4 0  9992","line2":"2 66919  50.0068 162.6359 0000197 319.8495  40.2363 13.29320248 38801","mean_motion":13.29320248,"eccentricity":1.97e-5,"inclination_deg":50.0068,"raan_deg":162.6359,"arg_perigee_deg":319.8495,"mean_anomaly_deg":40.2363,"bstar":5.1325e-5,"rev_number":3880,"period_min":108.32604123548,"perigee_km":1149.1799950557,"apogee_km":1149.4765771879,"semimajor_km":7527.4652861218,"source":"CELESTRAK","updated_at":"2026-09-21T09:00:16.305192Z"}}